Overview Statistics Trail Chart Weather Telemetry Raw packets
 

This is the latest recevied weather packets stored in our database for station/object N8QYG-1. If no packets are shown the sender has not sent any weather packets the latest 10 day(s).

<< 1 2 3 4 5 6 >>
Time Temp. Humidity Pressure Rain* Wind** Luminosity Snow
1788544978 22.22° C 9% - 0 mm - - -
1788544380 22.78° C 9% - 0 mm - - -
1788543777 22.22° C 9% - 0 mm - - -
1788543179 22.22° C 9% - 0 mm - - -
1788542578 21.67° C 9% - 0 mm - - -
1788541979 21.67° C 9% - 0 mm - - -
1788541385 21.11° C - - 0.25 mm - - -
1788541383 21.11° C 9% - 0.25 mm - - -
1788540779 21.11° C 9% - 1.02 mm - - -
1788540178 20.56° C 9% - 1.78 mm - - -
1788539579 20.56° C 9% - 2.29 mm - - -
1788538978 20.56° C 9% - 3.05 mm - - -
1788538379 20.56° C 9% - 3.81 mm - - -
1788537779 20° C 9% - 3.81 mm - - -
1788537180 20° C 9% - 3.3 mm - - -
1788536578 20° C 9% - 3.3 mm - - -
1788535979 20.56° C 9% - 3.81 mm - - -
1788535380 20.56° C 9% - 3.56 mm - - -
1788534781 20.56° C 9% - 3.3 mm - - -
1788534178 20° C 9% - 4.06 mm - - -
1788533580 20° C 9% - 4.57 mm - - -
1788532979 20° C 9% - 4.83 mm - - -
1788532378 20° C 9% - 6.1 mm - - -
1788531778 20° C 9% - 13.21 mm - - -
1788531179 20° C 9% - 16.26 mm - - -

* Rain latest hour (hover to see other rain measurements)
** Current wind speed in m/s (hover to see current wind gust speed)